Overview Statistics Trail Chart Weather Telemetry Raw packets
 

This is the latest recevied weather packets stored in our database for station/object YREN. If no packets are shown the sender has not sent any weather packets the latest 10 day(s).

<< 33 34 35 36 37 38 39 >>
Time Temp. Humidity Pressure Rain* Wind** Luminosity Snow
1787823304 11.67° C 76% 1026.9 hPa 0 mm - - -
1787822404 12.22° C 74% 1026.8 hPa 0 mm - - -
1787821504 12.22° C 74% 1026.8 hPa 0 mm - - -
1787820611 15.56° C 59% 1026.5 hPa 0 mm - - -
1787819704 15.56° C 59% 1026.5 hPa 0 mm - - -
1787818804 16.11° C 59% 1026.3 hPa 0 mm - - -
1787817904 16.11° C 59% 1026.3 hPa 0 mm - - -
1787817004 17.78° C 54% 1026 hPa 0 mm - - -
1787816103 17.78° C 54% 1026 hPa 0 mm - - -
1787815204 18.89° C 48% 1026 hPa 0 mm - - -
1787814304 18.89° C 48% 1026 hPa 0 mm - - -
1787813404 19.44° C 50% 1026.2 hPa 0 mm - - -
1787812504 19.44° C 50% 1026.2 hPa 0 mm - - -
1787811604 19.44° C 45% 1026.4 hPa 0 mm - - -
1787810703 19.44° C 45% 1026.4 hPa 0 mm - - -
1787809803 19.44° C 45% 1026.6 hPa 0 mm - - -
1787808903 19.44° C 45% 1026.6 hPa 0 mm - - -
1787808003 18.89° C 50% 1026.9 hPa 0 mm - - -
1787807104 18.89° C 50% 1026.9 hPa 0 mm - - -
1787806207 19.44° C 51% 1027 hPa 0 mm - - -
1787805304 19.44° C 51% 1027 hPa 0 mm - - -
1787804404 18.33° C 52% 1027.9 hPa 0 mm - - -
1787803503 18.33° C 52% 1027.9 hPa 0 mm - - -
1787802604 17.78° C 53% 1028.3 hPa 0 mm - - -
1787801704 17.78° C 53% 1028.3 hPa 0 mm - - -

* Rain latest hour (hover to see other rain measurements)
** Current wind speed in m/s (hover to see current wind gust speed)